TimeCDT,TemperatureF,Dew PointF,Humidity,Sea Level PressureIn,VisibilityMPH,Wind Direction,Wind SpeedMPH,Gust SpeedMPH,PrecipitationIn,Events,Conditions,WindDirDegrees,DateUTC
12:53 AM,60.1,35.1,39,29.64,10.0,NW,8.1,-,N/A,,Clear,320,2012-10-16 05:53:00
1:53 AM,57.9,37.0,46,29.63,10.0,NW,4.6,-,N/A,,Mostly Cloudy,320,2012-10-16 06:53:00
2:53 AM,57.9,41.0,53,29.63,10.0,WNW,8.1,-,N/A,,Scattered Clouds,290,2012-10-16 07:53:00
3:53 AM,57.0,43.0,59,29.62,10.0,West,9.2,-,N/A,,Mostly Cloudy,280,2012-10-16 08:53:00
5:53 AM,55.0,46.0,72,29.62,10.0,West,6.9,-,N/A,,Mostly Cloudy,280,2012-10-16 10:53:00
7:53 AM,52.0,45.0,77,29.62,10.0,West,11.5,-,N/A,,Clear,270,2012-10-16 12:53:00
8:53 AM,53.1,45.0,74,29.61,10.0,WSW,8.1,-,N/A,,Clear,250,2012-10-16 13:53:00
9:53 AM,55.9,44.1,64,29.62,10.0,West,15.0,-,N/A,,Clear,260,2012-10-16 14:53:00
10:53 AM,61.0,44.1,54,29.57,10.0,West,3.5,-,N/A,,Clear,260,2012-10-16 15:53:00
11:53 AM,64.9,43.0,45,29.54,10.0,WSW,6.9,-,N/A,,Clear,250,2012-10-16 16:53:00
12:53 PM,70.0,41.0,35,29.49,10.0,SW,10.4,-,N/A,,Clear,220,2012-10-16 17:53:00
1:53 PM,72.0,39.9,31,29.44,10.0,SW,11.5,20.7,N/A,,Clear,230,2012-10-16 18:53:00
2:53 PM,71.1,37.9,30,29.40,10.0,SW,12.7,-,N/A,,Clear,220,2012-10-16 19:53:00
3:53 PM,73.9,37.9,27,29.35,10.0,South,10.4,-,N/A,,Clear,190,2012-10-16 20:53:00
4:53 PM,73.0,37.0,27,29.31,10.0,South,10.4,-,N/A,,Clear,190,2012-10-16 21:53:00
5:53 PM,70.0,37.9,31,29.29,10.0,SE,5.8,-,N/A,,Clear,140,2012-10-16 22:53:00
6:53 PM,68.0,37.0,32,29.27,10.0,SE,8.1,-,N/A,,Clear,130,2012-10-16 23:53:00
7:53 PM,71.1,37.9,30,29.26,10.0,SSW,9.2,-,N/A,,Overcast,200,2012-10-17 00:53:00
8:53 PM,70.0,39.9,33,29.26,10.0,SW,12.7,19.6,0.00,Rain,Light Rain,230,2012-10-17 01:53:00
9:53 PM,60.1,50.0,69,29.27,10.0,NNW,5.8,-,0.02,Rain,Light Rain,340,2012-10-17 02:53:00
10:53 PM,60.1,48.9,67,29.26,10.0,North,9.2,-,0.00,Rain,Light Rain,350,2012-10-17 03:53:00
11:53 PM,57.9,50.0,75,29.28,10.0,WNW,15.0,-,0.01,Rain,Light Rain,290,2012-10-17 04:53:00